Torna al catalogo

KUIPER-00018

AttivoComunicazioniLEO
NORAD 63733·PAYLOAD·🇺🇸 United States

Lanciato Apr 28, 2025 da Cape Canaveral Space Force Station

Loading…

Prossimi Passaggi (prossime 24 ore)

TLE

AggiornatoSource: CelesTrak SupGP

Epoca: Sep 15, 2026, 05:29 UTC

1 63733C 25088K   26258.22902778  .00001334  00000+0  17461-3 0  2585
2 63733  51.9034 342.4756 0000328  83.7170  11.0319 14.79921498    16

Traccia KUIPER-00018 in tempo reale con AllMySat

Download on the App Store